Weather History for K0A9 - November, 2011

Change the Weather History Date:

Sunday, November 20, 2011

  Actual Average (KTRI) Record (KTRI)
Temperature  
Mean Temperature 58 °F 45 °F  
Max Temperature 71 °F 57 °F 75 °F (1988)
Min Temperature 44 °F 33 °F 12 °F (1951)
Degree Days  
Heating Degree Days 8 20  
Month to date heating degree days 333  
Since 1 July heating degree days 668  
Cooling Degree Days 0 0  
Month to date cooling degree days 0  
Year to date cooling degree days 980  
Growing Degree Days 8 (Base 50)    
Moisture  
Dew Point 48 °F    
Average Humidity 75    
Maximum Humidity 94    
Minimum Humidity 46    
Precipitation  
Precipitation 0.00 in 0.12 in 0.76 in (1950)
Month to date precipitation 1.97  
Year to date precipitation 36.51  
Snow  
Snow 0.00 in 0.00 in - ()
Month to date snowfall 0.1  
Since 1 July snowfall 0.2  
Since 1 September snowfall 0.2  
Snow Depth -    
Sea Level Pressure  
Sea Level Pressure 30.26 in    
Wind  
Wind Speed 4 mph (East)    
Max Wind Speed 12 mph    
Max Gust Speed -    
Visibility 10 miles    
Events Rain    
T = Trace of Precipitation, MM = Missing Value Source: NWS Daily Summary

Daily Weather History Graph

Daily Weather History Graph

Search for Another Location

Airport or City:

Trip Planner

Search our weather history database for the weather conditions in past years. The results will help you decide how hot, cold, wet, or windy it might be!

Date:

Astronomy

Nov. 20, 2011 Rise Set
Actual Time 7:10 AM EST 5:17 PM EST
Civil Twilight 6:43 AM EST 5:45 PM EST
Nautical Twilight 6:11 AM EST 6:16 PM EST
Astronomical Twilight 5:40 AM EST 6:47 PM EST
Moon 1:46 AM EST (11/20) 1:58 PM EST (11/20)
Length of Visible Light 11h 02m
Length of Day
10h 06m
Waning Crescent, 27% of the Moon is Illuminated
Nov 20
Waning Crescent
Nov 25
New
Dec 2
First Quarter
Dec 10
Full
Dec 17
Last Quarter

Hourly Weather History & Observations

Time (EST) Temp. Windchill Dew Point Humidity Pressure Visibility Wind Dir Wind Speed Gust Speed Precip Events Conditions
12:15 AM 46.4 °F 43.5 °F 39.2 °F 76% 30.28 in 10.0 mi ENE 5.8 mph - N/A   Scattered Clouds
12:35 AM 46.4 °F 42.9 °F 41.0 °F 81% 30.27 in 10.0 mi ENE 6.9 mph - N/A   Clear
1:15 AM 46.4 °F 42.9 °F 41.0 °F 81% 30.27 in 10.0 mi ENE 6.9 mph - N/A   Clear
1:35 AM 46.4 °F 44.3 °F 41.0 °F 81% 30.26 in 10.0 mi ENE 4.6 mph - N/A   Clear
1:55 AM 44.6 °F - 41.0 °F 87% 30.27 in 10.0 mi Calm Calm - N/A   Clear
2:15 AM 44.6 °F 43.1 °F 41.0 °F 87% 30.27 in 10.0 mi ENE 3.5 mph - N/A   Mostly Cloudy
2:35 AM 44.6 °F 40.2 °F 41.0 °F 87% 30.27 in 10.0 mi ENE 8.1 mph - N/A   Mostly Cloudy
2:55 AM 46.4 °F 42.9 °F 42.8 °F 87% 30.27 in 10.0 mi ENE 6.9 mph - N/A   Overcast
3:15 AM 46.4 °F 43.5 °F 41.0 °F 81% 30.28 in 10.0 mi NE 5.8 mph - N/A   Overcast
3:35 AM 46.4 °F - 42.8 °F 87% 30.28 in 10.0 mi Calm Calm - N/A   Overcast
3:55 AM 46.4 °F 43.5 °F 42.8 °F 87% 30.28 in 10.0 mi ENE 5.8 mph - N/A   Overcast
4:15 AM 46.4 °F 44.3 °F 42.8 °F 87% 30.28 in 10.0 mi ENE 4.6 mph - N/A   Overcast
4:35 AM 48.2 °F - 42.8 °F 82% 30.28 in 10.0 mi ENE 4.6 mph - N/A   Overcast
4:55 AM 46.4 °F - 42.8 °F 87% 30.28 in 10.0 mi Calm Calm - N/A   Mostly Cloudy
5:15 AM 46.4 °F - 42.8 °F 87% 30.29 in 10.0 mi Calm Calm - N/A   Overcast
5:35 AM 46.4 °F - 44.6 °F 93% 30.29 in 10.0 mi Calm Calm - N/A   Overcast
5:55 AM 48.2 °F - 44.6 °F 87% 30.30 in 10.0 mi Calm Calm - N/A   Overcast
6:55 AM 44.6 °F - 42.8 °F 93% 30.29 in 10.0 mi Calm Calm - N/A   Partly Cloudy
7:55 AM 46.4 °F 45.2 °F 42.8 °F 87% 30.30 in 10.0 mi East 3.5 mph - N/A   Clear
8:15 AM 48.2 °F - 44.6 °F 87% 30.30 in 10.0 mi ENE 3.5 mph - N/A   Clear
8:35 AM 50.0 °F - 44.6 °F 82% 30.30 in 10.0 mi East 5.8 mph - N/A   Clear
8:55 AM 51.8 °F - 44.6 °F 76% 30.31 in 10.0 mi East 4.6 mph - N/A   Clear
9:15 AM 53.6 °F - 44.6 °F 72% 30.31 in 10.0 mi East 4.6 mph - N/A   Clear
9:35 AM 55.4 °F - 44.6 °F 67% 30.30 in 10.0 mi ESE 3.5 mph - N/A   Clear
9:55 AM 57.2 °F - 46.4 °F 67% 30.31 in 10.0 mi Calm Calm - N/A   Clear
10:15 AM 59.0 °F - 46.4 °F 63% 30.30 in 10.0 mi Calm Calm - N/A   Partly Cloudy
10:35 AM 60.8 °F - 48.2 °F 63% 30.30 in 10.0 mi ESE 3.5 mph - N/A   Light Drizzle
10:55 AM 62.6 °F - 48.2 °F 59% 30.29 in 10.0 mi Variable 3.5 mph - N/A   Mostly Cloudy
11:15 AM 64.4 °F - 48.2 °F 56% 30.29 in 10.0 mi Calm Calm - N/A   Partly Cloudy
11:35 AM 64.4 °F - 50.0 °F 59% 30.28 in 10.0 mi SSE 3.5 mph - N/A   Clear
11:55 AM 66.2 °F - 50.0 °F 56% 30.27 in 10.0 mi South 4.6 mph - N/A   Partly Cloudy
12:15 PM 68.0 °F - 50.0 °F 52% 30.25 in 10.0 mi Calm Calm - N/A   Clear
12:35 PM 71.6 °F - 50.0 °F 46% 30.24 in 10.0 mi West 4.6 mph - N/A   Clear
12:55 PM 71.6 °F - 50.0 °F 46% 30.23 in 10.0 mi WNW 11.5 mph - N/A   Clear
1:15 PM 69.8 °F - 50.0 °F 49% 30.22 in 10.0 mi West 6.9 mph - N/A   Clear
1:55 PM 68.0 °F - 51.8 °F 56% 30.21 in 10.0 mi West 8.1 mph - N/A   Clear
2:15 PM 66.2 °F - 50.0 °F 56% 30.22 in 10.0 mi West 9.2 mph - N/A   Clear
2:55 PM 66.2 °F - 51.8 °F 60% 30.21 in 10.0 mi West 8.1 mph - N/A   Clear
3:15 PM 66.2 °F - 51.8 °F 60% 30.22 in 10.0 mi West 6.9 mph - N/A   Clear
3:35 PM 64.4 °F - 51.8 °F 64% 30.22 in 10.0 mi West 6.9 mph - N/A   Clear
3:55 PM 64.4 °F - 51.8 °F 64% 30.23 in 10.0 mi West 4.6 mph - N/A   Clear
4:15 PM 64.4 °F - 51.8 °F 64% 30.24 in 10.0 mi West 6.9 mph - N/A   Clear
4:35 PM 62.6 °F - 51.8 °F 68% 30.24 in 10.0 mi West 5.8 mph - N/A   Clear
4:55 PM 62.6 °F - 51.8 °F 68% 30.25 in 10.0 mi West 4.6 mph - N/A   Scattered Clouds
5:15 PM 62.6 °F - 51.8 °F 68% 30.25 in 10.0 mi Calm Calm - N/A   Overcast
5:35 PM 60.8 °F - 51.8 °F 72% 30.26 in 10.0 mi WSW 5.8 mph - N/A   Overcast
5:55 PM 62.6 °F - 51.8 °F 68% 30.25 in 10.0 mi WSW 4.6 mph - N/A   Overcast
6:15 PM 60.8 °F - 51.8 °F 72% 30.24 in 10.0 mi Calm Calm - N/A Rain Light Rain
6:35 PM 57.2 °F - 53.6 °F 88% 30.24 in 10.0 mi Calm Calm - N/A   Scattered Clouds
6:55 PM 57.2 °F - 51.8 °F 82% 30.24 in 10.0 mi Calm Calm - N/A   Partly Cloudy
7:15 PM 57.2 °F - 51.8 °F 82% 30.23 in 10.0 mi East 4.6 mph - N/A   Scattered Clouds
7:35 PM 55.4 °F - 51.8 °F 88% 30.23 in 10.0 mi Calm Calm - N/A   Overcast
7:55 PM 55.4 °F - 51.8 °F 88% 30.23 in 10.0 mi Calm Calm - N/A   Mostly Cloudy
8:35 PM 53.6 °F - 51.8 °F 94% 30.23 in 10.0 mi Calm Calm - N/A   Mostly Cloudy
8:55 PM 55.4 °F - 51.8 °F 88% 30.23 in 10.0 mi Calm Calm - N/A   Mostly Cloudy
9:15 PM 55.4 °F - 51.8 °F 88% 30.23 in 10.0 mi Calm Calm - N/A   Overcast
9:35 PM 55.4 °F - 51.8 °F 88% 30.24 in 10.0 mi Calm Calm - N/A   Overcast
9:55 PM 55.4 °F - 51.8 °F 88% 30.24 in 10.0 mi SW 5.8 mph - N/A   Overcast
10:15 PM 55.4 °F - 51.8 °F 88% 30.25 in 10.0 mi SSW 5.8 mph - N/A   Overcast
10:35 PM 57.2 °F - 53.6 °F 88% 30.25 in 8.0 mi SW 4.6 mph - N/A Rain Rain
10:55 PM 55.4 °F - 53.6 °F 94% 30.24 in 10.0 mi Calm Calm - N/A   Overcast
11:15 PM 55.4 °F - 53.6 °F 94% 30.25 in 10.0 mi Calm Calm - N/A   Overcast
11:35 PM 55.4 °F - 53.6 °F 94% 30.25 in 10.0 mi Calm Calm - N/A   Light Drizzle
11:55 PM 55.4 °F - 53.6 °F 94% 30.25 in 5.0 mi SSE 3.5 mph - N/A Rain Light Rain